{"data":{"norad_id":69329,"epoch":"2026-09-19T12:25:03.925920Z","epoch_age_seconds":113993,"freshness":"FRESH","line1":"1 69329U 26122A   26262.51740655  .00002966  00000+0  94126-4 0  9991","line2":"2 69329  97.2830 291.0743 0001607 164.3658 195.7635 15.33458068 16649","mean_motion":15.33458068,"eccentricity":0.0001607,"inclination_deg":97.283,"raan_deg":291.0743,"arg_perigee_deg":164.3658,"mean_anomaly_deg":195.7635,"bstar":9.4126e-5,"rev_number":1664,"period_min":93.905404396099,"perigee_km":464.40452042449,"apogee_km":466.60406673625,"semimajor_km":6843.6412935804,"source":"CELESTRAK","updated_at":"2026-09-20T09:00:44.158907Z"}}